Regional Weather Roundup
Issued by NWS

Home | Current Version | Previous Version | Graphics & Text | Print | Product List | Glossary On
Versions: 1 2 3 4 5 6 7 8 9 10 11 12 13 14 15 16 17 18 19 20 21 22 23 24 25 26 27
000
ASUS45 KTFX 270710
RWRMT
MONTANA REGIONAL WEATHER ROUNDUP
NATIONAL WEATHER SERVICE GREAT FALLS MT
100 AM MDT WED JUL 27 2016

NOTE: "FAIR" INDICATES FEW OR NO CLOUDS BELOW 12000 FEET WITH NO
SIGNIFICANT WEATHER AND/OR OBSTRUCTIONS TO VISIBILITY.

MTZ001>007-043-270800-
WEST OF THE DIVIDE

CITY           SKY/WX    TMP DP  RH WIND       PRES   REMARKS
KALISPELL      CLEAR     61  53  75 N8        30.07R
MISSOULA       CLEAR     66  52  60 CALM      30.09R
BUTTE          CLEAR     50  41  71 E7        30.23S
MULLAN PASS    PTCLDY    64  42  44 N6        30.25S
ANACONDA         N/A     55  45  67 SW12      30.19S
DEER LODGE       N/A     55  50  82 CALM      30.20R
EUREKA           N/A     61  54  77 S3        30.09S
HAMILTON         N/A     64  48  55 CALM      30.11S
LIBBY            N/A     63  52  67 CALM      30.08F
PLAINS           N/A     64  50  60 CALM      30.07R
RONAN            N/A     63  54  72 CALM      30.11S
$$

MTZ008-052>055-270800-
SOUTHWEST MONTANA

CITY           SKY/WX    TMP DP  RH WIND       PRES   REMARKS
BOZEMAN        CLEAR     62  46  55 S10       30.16R
DILLON         CLEAR     51  42  71 SE5       30.21R
W YELLOWSTONE  CLOUDY    55  37  50 CALM      30.29S
ENNIS          CLEAR     52  41  66 NE5       30.25S
THREE FORKS      N/A     61  25  25 CALM      30.13R
TWIN BRIDGES     N/A     52  42  68 CALM      30.16S
$$

MTZ009-010-012-014-046-048-049-054-270800-
EAST SLOPES AND CENTRAL MONTANA

CITY           SKY/WX    TMP DP  RH WIND       PRES   REMARKS
CUT BANK       MOCLDY    55  53  93 S5        30.15F
GREAT FALLS    CLEAR     55  52  89 SW6       30.15R
MALMSTROM AFB  PTCLDY    57  55  92 SW3       30.13S
HELENA         CLEAR     65  52  62 SW9       30.14R
CHOTEAU          N/A     54  54 100 CALM      30.19S
CONRAD           N/A     54  54 100 CALM      30.16F
$$

MTZ011-013-016-021-045-047-050-051-270800-
NORTH CENTRAL MONTANA

CITY           SKY/WX    TMP DP  RH WIND       PRES   REMARKS
HAVRE          CLOUDY    63  58  83 S8        30.06R
LEWISTOWN      MOCLDY    61  55  81 SE9       30.15F
N BAR RANCH    MOCLDY    59  55  88 CALM      30.21S
CHINOOK          N/A     63  59  88 E8        30.06S
$$

MTZ017>020-022>027-061-062-270800-
NORTHEAST MONTANA

CITY           SKY/WX    TMP DP  RH WIND       PRES   REMARKS
GLASGOW        RAIN      62  58  86 NE5       30.12F FOG
JORDAN           N/A     61  60  97 NW13      30.18R
SIDNEY         CLOUDY    62  58  86 NE6       30.08R
WOLF POINT     CLOUDY    65  57  75 E8        30.06F
PLENTYWOOD       N/A     61  55  82 NE7       30.10F
POPLAR           N/A     63  57  82 NE9       30.07S
SCOBEY           N/A     59  50  72 NE7       30.08F
$$

MTZ028>42-056>058-270800-
SOUTHCENTRAL AND SOUTHEAST MONTANA

CITY           SKY/WX    TMP DP  RH WIND       PRES   REMARKS
BAKER          CLOUDY    59  56  89 SE9       30.12R
BILLINGS       CLOUDY    67  54  63 N10       30.12R
LIVINGSTON     CLOUDY    64  45  49 W7        30.16S
MILES CITY     CLOUDY    72  56  57 E12       30.06R
EKALAKA          N/A     63  57  80 SE10      30.10R
FORSYTH          N/A     75  54  46 NE5       30.05F
LAUREL           N/A     67  53  60 NW8       30.11R
ROUNDUP          N/A     64  55  72 N6        30.05R
$$

REGIONAL REPORTS...DAKOTAS

CITY           SKY/WX    TMP DP  RH WIND       PRES   REMARKS
WILLISTON      CLEAR     64  55  72 NE6       30.09F
MINOT          MOCLDY    66  62  87 N5        30.06R
DICKINSON      CLEAR     55  54  96 CALM      30.10R
BEACH            N/A     59  59 100 E6        30.15R
CROSBY           N/A     54  54 100 NW6       30.13S
WATFORD CITY     N/A    N/A N/A N/A MISG        N/A
BISMARCK       CLOUDY    63  61  93 N6        30.05R
GRAND FORKS    CLOUDY    68  64  87 CALM      30.02S
FARGO          CLOUDY    69  65  86 N5        29.96S
BUFFALO SD       N/A     63  60  90 NE6       30.07R
RAPID CITY     PTCLDY    65  57  75 N10       30.09S
$$

REGIONAL REPORTS...WYOMING/IDAHO/WASHINGTON

CITY           SKY/WX    TMP DP  RH WIND       PRES   REMARKS
GILLETTE       CLOUDY    67  55  65 CALM      30.14R
SHERIDAN       CLOUDY    65  51  60 NW10      30.09F
BUFFALO WY     CLOUDY    67  52  58 S12       30.18F
CODY           PTCLDY    64  43  45 S6        30.17S
YELLOWSTONE LA   N/A     51  38  60 CALM      30.37F
IDAHO FALLS    CLEAR     55  45  68 N6        30.13S
SALMON         CLEAR     55  46  71 CALM      30.13S
BOISE          CLEAR     77  47  34 CALM      29.96R
SPOKANE        PTCLDY    69  54  58 NE7       30.04S
$$

REGIONAL REPORTS...ALBERTA

CITY           SKY/WX    TMP DP  RH WIND       PRES   REMARKS
EDMONTON       PTCLDY    59  55  88 SW3       30.07S
CALGARY        MOCLDY    63  55  77 NW5       30.14R
LETHBRIDGE     PTCLDY    57  57 100 S8        30.11F
MEDICINE HAT   CLEAR     61  61 100 NE2       30.11R
WATERTON GATE    N/A     54  52  94 SW7         N/A
MILK RIVER       N/A     55  54  94 W3          N/A
$$

REGIONAL REPORTS...SASKATCHEWAN

CITY           SKY/WX    TMP DP  RH WIND       PRES   REMARKS
SWIFT CURRENT  CLEAR     59  55  88 E12       30.13R
REGINA         CLOUDY    63  52  67 NE8       30.15R
SASKATOON      PTCLDY    61  54  77 S7        30.15S
CYPRESS HILLS    N/A     57  54  88 E6          N/A
VAL MARIE        N/A     61  59  94 E5          N/A
ROCKGLEN         N/A     59  54  82 E5          N/A
$$




USA.gov is the U.S. government's official web portal to all federal, state and local government web resources and services.